Location: Gaast
(52.9002°N, 5.8891°E)
Time: 00:09:50
(UTC+00:00)

Okean 2 Rocket - Pass Details

Date: 18 November 2025
Orbit: 610 x 635 km, 82.5° (Epoch: 04 December)

Event Time Altitude Azimuth Distance (km) Brightness Sun altitude
Rises 17:12:09 0° 160° (SSE) 2,885 6.4 -14.0°
Reaches altitude 10° 17:14:33 10° 150° (SSE) 1,980 5.5 -14.3°
Maximum altitude 17:18:22 30° 89° (E) 1,117 3.8 -14.9°
Enters shadow 17:20:01 23° 52° (NE) 1,324 4.2 -15.1°
